ASTRA 2G

Last updated on Wed Sep 17 2025 00:02:48 GMT+0000 (Coordinated Universal Time)

1 40364U 14089A 25259.58927870 .00000000 00000+0 00000+0 0 9996 2 40364 0.0238 15.3984 0002222 82.2384 138.4600 1.00270736 39221
UTC large
Height (km)
Speed (km/s)
/
Latitude / Longitude
Inclination (degrees)
Orbital Period (minutes)
Azimuth
Elevation
Range (km)
Doppler Factor

Next 0 passes for location: London (51.5072 / 0.1276)

Sorry there are no passes over London.